User: anonymous   Login
Location: Bun Machan
(52.1403°N, 7.3744°W)
Time: 16:45:30
(UTC+00:00)
Language:

SeaSat 1 - Orbit

View from above orbital plane
View from above orbital plane
View from above satellite
View from above satellite

Ground track
Ground track

The orbit data is extracted from the following two-line orbital elements,

1 10967U 78064A   20270.96917687 -.00000057 +00000-0 +23443-4 0  9995
2 10967 108.0080 283.1241 0003013 266.3158 093.7642 14.43836781219245
Epoch (UTC): 26 September 2020 23:15:36
Eccentricity: 0.0003013
inclination: 108.0080°
perigee height: 744 km
apogee height: 748 km
right ascension of ascending node: 283.1241°
argument of perigee: 266.3158°
revolutions per day: 14.43836781
mean anomaly at epoch: 93.7642°
orbit number at epoch: 21924

The dashed part of the orbit path shows where the satellite is in the earth's shadow,  

DLR